• In Romania
  • List of Countries
  • For 7 days
  • Water Temperature
  • Satellite Maps
  • Weather Map
  • Weather Widgets
  • user-avatar
    Login

    Hourly Weather Wlora

    Today, 20 September, Thursday

    Time Temperature Precipitation Wind Pressure Humidity
    00:00 +25°C° 0 mm 1 mps 763 mmHg 60%
    01:00 +25°C° 0 mm 1 mps 763 mmHg 60%
    02:00 +24°C° 0 mm 1 mps 763 mmHg 60%
    03:00 +24°C° 0 mm 2 mps 763 mmHg 60%
    04:00 +24°C° 0 mm 2 mps 763 mmHg 59%
    05:00 +25°C° 0 mm 2 mps 763 mmHg 58%
    06:00 +25°C° 0 mm 2 mps 763 mmHg 56%
    07:00 +26°C° 0 mm 2 mps 763 mmHg 52%
    08:00 +28°C° 0 mm 2 mps 763 mmHg 48%
    09:00 +30°C° 0 mm 1 mps 763 mmHg 44%
    10:00 +32°C° 0 mm 1 mps 763 mmHg 39%
    11:00 +32°C° 0 mm 2 mps 762 mmHg 38%
    12:00 +32°C° 0 mm 2 mps 762 mmHg 37%
    13:00 +32°C° 0 mm 2 mps 762 mmHg 37%
    14:00 +32°C° 0 mm 2 mps 762 mmHg 40%
    15:00 +32°C° 0 mm 2 mps 762 mmHg 43%
    16:00 +31°C° 0 mm 2 mps 761 mmHg 45%
    17:00 +29°C° 0 mm 1 mps 761 mmHg 52%
    18:00 +28°C° 0 mm 1 mps 761 mmHg 60%
    19:00 +24°C° 0 mm 0 mps 761 mmHg 67%
    20:00 +24°C° 0 mm 0 mps 762 mmHg 67%
    21:00 +23°C° 0 mm 0 mps 762 mmHg 67%
    22:00 +23°C° 0 mm 0 mps 762 mmHg 67%
    23:00 +25°C° 0 mm 1 mps 762 mmHg 65%

    Tomorrow, 21 September, Friday

    Time Temperature Precipitation Wind Pressure Humidity
    00:00 +24°C° 0 mm 1 mps 762 mmHg 63%
    01:00 +24°C° 0 mm 1 mps 762 mmHg 61%
    02:00 +24°C° 0 mm 1 mps 762 mmHg 60%
    03:00 +24°C° 0 mm 1 mps 762 mmHg 59%
    04:00 +23°C° 0 mm 2 mps 762 mmHg 58%
    05:00 +24°C° 0 mm 2 mps 762 mmHg 56%
    06:00 +25°C° 0 mm 2 mps 762 mmHg 54%
    07:00 +25°C° 0 mm 2 mps 762 mmHg 51%
    08:00 +27°C° 0 mm 2 mps 762 mmHg 47%
    09:00 +29°C° 0 mm 2 mps 762 mmHg 42%
    10:00 +31°C° 0 mm 2 mps 762 mmHg 38%
    11:00 +31°C° 0 mm 3 mps 762 mmHg 38%
    12:00 +33°C° 0 mm 3 mps 762 mmHg 38%
    13:00 +33°C° 0 mm 4 mps 762 mmHg 38%
    14:00 +32°C° 0 mm 4 mps 762 mmHg 43%
    15:00 +31°C° 0 mm 3 mps 761 mmHg 48%
    16:00 +30°C° 0 mm 3 mps 761 mmHg 53%
    17:00 +28°C° 0 mm 3 mps 761 mmHg 61%
    18:00 +27°C° 0 mm 2 mps 762 mmHg 69%
    19:00 +25°C° 0 mm 2 mps 762 mmHg 77%
    20:00 +25°C° 0 mm 2 mps 762 mmHg 79%
    21:00 +25°C° 0 mm 2 mps 762 mmHg 80%
    22:00 +24°C° 0 mm 1 mps 763 mmHg 82%
    23:00 +24°C° 0 mm 1 mps 763 mmHg 82%

    Day after tomorrow, 22 September, Saturday

    Time Temperature Precipitation Wind Pressure Humidity
    00:00 +24°C° 0 mm 1 mps 763 mmHg 82%
    01:00 +24°C° 0 mm 1 mps 763 mmHg 82%
    02:00 +23°C° 0 mm 1 mps 763 mmHg 82%
    03:00 +23°C° 0 mm 1 mps 763 mmHg 82%
    04:00 +23°C° 0 mm 1 mps 762 mmHg 82%
    05:00 +24°C° 0 mm 1 mps 763 mmHg 77%
    06:00 +24°C° 0 mm 1 mps 763 mmHg 72%
    07:00 +25°C° 0 mm 1 mps 763 mmHg 67%
    08:00 +27°C° 0 mm 1 mps 763 mmHg 60%
    09:00 +29°C° 0 mm 1 mps 763 mmHg 53%
    10:00 +30°C° 0 mm 1 mps 763 mmHg 46%
    11:00 +31°C° 0 mm 1 mps 763 mmHg 45%
    12:00 +32°C° 0 mm 2 mps 763 mmHg 43%
    13:00 +33°C° 0 mm 3 mps 763 mmHg 42%
    14:00 +31°C° 0 mm 3 mps 763 mmHg 45%
    15:00 +31°C° 0 mm 3 mps 762 mmHg 48%
    16:00 +30°C° 0 mm 3 mps 762 mmHg 51%
    17:00 +29°C° 0 mm 3 mps 762 mmHg 58%
    18:00 +27°C° 0 mm 2 mps 763 mmHg 66%
    19:00 +25°C° 0 mm 2 mps 763 mmHg 73%
    20:00 +25°C° 0 mm 2 mps 763 mmHg 74%
    21:00 +25°C° 0 mm 2 mps 764 mmHg 76%
    22:00 +24°C° 0 mm 2 mps 764 mmHg 77%
    23:00 +24°C° 0 mm 2 mps 764 mmHg 75%

    23 September, Sunday

    Time Temperature Precipitation Wind Pressure Humidity
    00:00 +24°C° 0 mm 2 mps 764 mmHg 73%
    01:00 +23°C° 0 mm 2 mps 764 mmHg 72%
    02:00 +23°C° 0 mm 2 mps 764 mmHg 70%
    03:00 +22°C° 0 mm 3 mps 764 mmHg 69%
    04:00 +22°C° 0 mm 3 mps 764 mmHg 68%
    05:00 +24°C° 0 mm 3 mps 764 mmHg 64%
    06:00 +25°C° 0 mm 3 mps 764 mmHg 60%
    07:00 +26°C° 0 mm 3 mps 764 mmHg 56%
    08:00 +28°C° 0 mm 3 mps 765 mmHg 50%
    09:00 +30°C° 0 mm 3 mps 765 mmHg 43%
    10:00 +33°C° 0 mm 3 mps 765 mmHg 37%
    11:00 +34°C° 0 mm 4 mps 765 mmHg 35%
    12:00 +35°C° 0 mm 4 mps 765 mmHg 33%
    13:00 +35°C° 0 mm 5 mps 764 mmHg 32%
    14:00 +35°C° 0 mm 5 mps 764 mmHg 35%
    15:00 +34°C° 0 mm 5 mps 764 mmHg 38%
    16:00 +33°C° 0 mm 5 mps 764 mmHg 41%
    17:00 +30°C° 0 mm 4 mps 764 mmHg 47%
    18:00 +28°C° 0 mm 4 mps 764 mmHg 53%
    19:00 +26°C° 0 mm 3 mps 764 mmHg 59%
    20:00 +26°C° 0 mm 3 mps 765 mmHg 58%
    21:00 +26°C° 0 mm 3 mps 765 mmHg 57%
    22:00 +26°C° 0 mm 2 mps 765 mmHg 57%
    23:00 +26°C° 0 mm 2 mps 765 mmHg 56%

    24 September, Monday

    Time Temperature Precipitation Wind Pressure Humidity
    00:00 +26°C° 0 mm 2 mps 764 mmHg 56%
    01:00 +25°C° 0 mm 1 mps 764 mmHg 55%
    02:00 +25°C° 0 mm 1 mps 764 mmHg 57%
    03:00 +25°C° 0 mm 1 mps 763 mmHg 58%
    04:00 +25°C° 0 mm 1 mps 763 mmHg 59%
    05:00 +25°C° 0 mm 1 mps 763 mmHg 58%
    06:00 +26°C° 0 mm 1 mps 763 mmHg 57%
    07:00 +27°C° 0 mm 1 mps 763 mmHg 57%
    08:00 +28°C° 0 mm 2 mps 763 mmHg 51%
    09:00 +30°C° 0 mm 2 mps 763 mmHg 46%
    10:00 +31°C° 0 mm 3 mps 763 mmHg 41%
    11:00 +33°C° 0 mm 3 mps 762 mmHg 39%
    12:00 +34°C° 0 mm 3 mps 762 mmHg 36%
    13:00 +34°C° 0 mm 4 mps 761 mmHg 34%
    14:00 +33°C° 0 mm 3 mps 761 mmHg 37%
    15:00 +33°C° 0 mm 3 mps 761 mmHg 39%
    16:00 +31°C° 0 mm 3 mps 760 mmHg 41%
    17:00 +29°C° 0 mm 3 mps 760 mmHg 48%
    18:00 +28°C° 0 mm 2 mps 760 mmHg 54%
    19:00 +26°C° 0 mm 2 mps 760 mmHg 60%
    20:00 +25°C° 0 mm 2 mps 760 mmHg 61%
    21:00 +25°C° 0 mm 1 mps 760 mmHg 62%
    22:00 +25°C° 0 mm 1 mps 761 mmHg 63%
    23:00 +24°C° 0 mm 1 mps 761 mmHg 62%

    25 September, Tuesday

    Time Temperature Precipitation Wind Pressure Humidity
    00:00 +24°C° 0 mm 1 mps 761 mmHg 61%
    01:00 +24°C° 0 mm 1 mps 761 mmHg 61%
    02:00 +24°C° 0 mm 2 mps 761 mmHg 61%
    03:00 +23°C° 0 mm 2 mps 761 mmHg 61%
    04:00 +22°C° 0 mm 3 mps 761 mmHg 61%
    05:00 +22°C° 0 mm 3 mps 761 mmHg 58%
    06:00 +24°C° 0 mm 3 mps 761 mmHg 55%
    07:00 +24°C° 0 mm 3 mps 761 mmHg 53%
    08:00 +26°C° 0 mm 4 mps 761 mmHg 48%
    09:00 +28°C° 0 mm 4 mps 762 mmHg 43%
    10:00 +30°C° 0 mm 5 mps 762 mmHg 38%
    11:00 +32°C° 0 mm 6 mps 762 mmHg 36%
    12:00 +32°C° 0 mm 7 mps 762 mmHg 35%
    13:00 +33°C° 0 mm 8 mps 762 mmHg 34%
    14:00 +32°C° 0 mm 9 mps 762 mmHg 36%
    15:00 +31°C° 0 mm 10 mps 762 mmHg 38%
    16:00 +29°C° 0 mm 11 mps 762 mmHg 40%
    17:00 +28°C° 0 mm 11 mps 762 mmHg 40%
    18:00 +27°C° 0 mm 11 mps 762 mmHg 40%
    19:00 +26°C° 0 mm 10 mps 763 mmHg 41%
    20:00 +24°C° 0 mm 10 mps 763 mmHg 43%
    21:00 +23°C° 0 mm 9 mps 763 mmHg 45%
    22:00 +21°C° 0 mm 9 mps 764 mmHg 48%
    23:00 +18°C° 0.1 mm 9 mps 764 mmHg 54%
    Show more